Terminal Aerodrome Forecast
Issued by NWS

Home | Current Version | Previous Version | Text Only | Print | Product List | Glossary On
Versions: 1 2 3 4 5 6 7 8 9 10 11 12
135
FTUS42 TJSJ 271731
TAFNCM
TAF
TNCM 271731Z 2718/2818 08008KT P6SM VCSH SCT017
     FM272300 09008KT P6SM FEW024
     FM280800 08012KT P6SM VCSH SCT018=

USA.gov is the U.S. government's official web portal to all federal, state and local government web resources and services.